CAPE
14 16 37 22 41 43 32 32 36 22 11 33 49 153 22 0 0 0 1 0 0 0 0 0 0 0 0 0 0 0 0 0 0 0 0 0 0 0 0 0 0 0 0 0 0
2 5 1 18 4 7 29 31 27 25 19 27 56 39 76 0 0 0 0 0 1 0 0 0 0 0 0 0 0 0 0 0 0 0 0 0 0 0 0 0 0 0 0 0 0
45 24 23 17 12 14 22 17 21 25 29 19 17 9 27 0 0 0 0 0 4 13 0 0 0 0 0 0 0 0 0 0 0 0 0 0 0 0 0 0 0 0 0 0 0
58 45 26 19 20 18 22 9 8 13 19 41 1 19 7 0 0 0 0 0 33 0 0 0 0 0 0 0 0 0 0 0 0 0 0 0 0 0 0 0 0 0 0 0 0
60 55 14 7 15 14 34 20 10 14 18 1 1 76 0 0 0 0 3 47 0 0 0 0 0 0 0 0 0 0 0 0 0 0 0 0 0 0 0 0 0 0 0 0 0
71 41 13 1 5 13 20 19 9 7 9 1 47 1 0 0 0 0 0 0 0 0 0 0 0 0 0 0 0 0 0 0 0 0 0 0 0 0 0 0 0 0 0 0 0
86 47 23 14 7 16 7 11 2 4 0 2 28 0 0 1 0 14 11 5 0 0 0 0 0 0 0 0 0 0 0 0 0 0 0 0 0 0 0 0 0 0 0 0 0
86 53 43 22 10 0 3 2 4 0 7 39 27 0 3 0 0 0 0 0 0 0 0 0 0 0 0 0 0 0 0 0 0 0 0 0 0 0 0 0 0 0 0 0 0
34 39 32 10 0 1 1 0 0 86 197 223 4 0 8 5 0 0 0 0 0 0 0 0 0 0 0 0 0 0 0 0 0 0 0 0 0 0 0 0 0 0 0 0 0
85 79 57 66 31 6 0 0 0 30 27 2 3 0 5 0 0 0 0 0 0 6 0 0 0 0 0 1 0 0 0 0 0 0 0 0 0 0 0 0 0 0 0 0 0
75 68 69 63 41 7 0 0 0 0 0 0 0 5 0 0 0 0 3 14 8 1 0 0 2 0 0 0 0 0 0 0 0 0 0 0 0 0 0 0 0 0 0 0 0
88 70 90 100 29 0 0 0 0 0 15 3 2 0 0 1 3 0 1 0 1 0 0 0 0 0 0 0 0 0 0 0 0 0 0 0 0 0 0 0 0 0 0 0 0
25 16 25 20 20 0 0 6 0 0 7 8 15 3 3 0 0 1 4 1 0 1 0 0 0 0 0 0 0 0 1 0 0 0 0 1 0 0 0 0 0 0 0 0 0
43 39 22 0 0 0 1 7 4 4 0 4 18 17 24 31 6 0 3 14 20 2 0 0 0 0 0 0 0 0 0 0 0 10 15 3 0 0 0 0 0 0 0 0 0
15 41 12 0 0 0 11 3 8 3 0 4 2 6 2 5 0 9 15 25 30 3 8 0 0 0 13 8 0 0 0 0 2 18 0 0 10 0 0 0 0 0 0 0 0
0 0 0 0 0 0 0 14 5 0 0 10 5 22 10 18 30 25 27 14 9 16 9 0 0 1 0 0 0 0 0 0 0 1 1 1 3 0 5 9 0 0 0 0 0
10 0 0 0 0 0 0 2 0 1 5 1 16 4 2 21 5 23 6 6 3 7 4 2 2 1 1 1 0 0 7 0 0 3 0 12 13 1 9 4 21 9 11 10 5
0 0 0 0 0 0 0 0 0 14 22 6 1 0 2 6 1 4 16 19 2 4 19 0 0 3 1 1 2 4 11 1 0 0 3 9 0 0 15 4 23 7 7 4 3
0 0 0 0 0 0 0 0 1 17 5 0 16 4 1 9 12 18 8 10 4 1 0 22 0 0 0 0 1 10 16 19 10 6 4 3 6 3 1 3 20 2 2 2 1
0 0 0 0 0 0 0 2 1 0 0 0 0 0 0 0 1 1 10 0 3 0 0 9 7 0 0 0 0 4 12 19 10 0 0 1 3 2 0 0 10 7 3 2 2
0 0 0 0 0 0 0 0 0 0 0 0 0 0 0 0 0 5 0 0 0 0 0 0 3 0 0 0 0 2 23 18 16 2 1 0 5 4 1 1 14 11 2 0 0
0 0 0 0 0 0 0 0 0 0 0 0 0 0 0 0 0 0 0 0 0 0 0 0 0 0 0 0 0 0 0 0 0 0 0 0 6 5 4 14 12 1 0 0 0
0 0 0 0 0 0 0 0 0 0 0 0 0 0 0 0 0 0 0 0 0 0 0 0 0 0 0 0 0 0 0 0 0 0 0 0 5 3 10 9 0 0 0 0 0
0 0 0 0 0 0 0 0 0 0 0 0 0 0 0 0 0 0 0 0 0 0 0 0 0 0 0 0 0 0 0 0 0 0 1 4 10 5 1 4 0 0 0 0 0
0 0 0 0 0 0 0 0 0 0 0 0 0 0 0 0 0 0 0 0 0 0 0 0 0 0 0 0 0 0 0 0 0 0 0 5 3 4 2 2 0 0 0 0 0
0 0 0 0 0 0 0 0 0 0 0 0 0 0 0 0 0 0 0 0 0 0 0 0 0 0 0 0 0 0 0 0 0 0 0 0 0 0 0 0 0 0 0 0 0
0 0 0 0 0 0 0 0 0 0 0 0 0 0 0 0 0 0 0 0 0 0 0 0 0 0 0 0 0 0 0 0 0 0 0 0 0 0 0 0 0 0 0 0 0
CIN
0 0 0 0 0 0 0 0 0 0 -7 -1 0 0 -13 0 0 0 0 0 0 0 0 0 0 0 0 0 0 0 0 0 0 0 0 0 0 0 0 0 0 0 0 0 0
-24 -24 -9 0 -6 0 0 0 0 0 0 -7 0 -4 0 0 0 0 0 0 0 0 0 0 0 0 0 0 0 0 0 0 0 0 0 0 0 0 0 0 0 0 0 0 0
0 -8 -26 -6 0 0 0 0 0 0 0 0 -5 -9 -25 0 0 0 0 0 0 -1 0 0 0 0 0 0 0 0 0 0 0 0 0 0 0 0 0 0 0 0 0 0 0
0 0 0 0 0 0 0 0 0 0 0 0 -9 -41 0 0 0 0 0 0 -1 0 0 0 0 0 0 0 0 0 0 0 0 0 0 0 0 0 0 0 0 0 0 0 0
-1 -1 0 -3 0 0 0 0 0 0 0 -1 -71 -3 0 0 0 0 -2 -1 0 0 0 0 0 0 0 0 0 0 0 0 0 0 0 0 0 0 0 0 0 0 0 0 0
0 -3 0 0 0 0 0 0 0 0 0 0 -37 0 0 0 0 0 -2 0 0 0 0 0 0 0 0 0 0 0 0 0 0 0 0 0 0 0 0 0 0 0 0 0 0
0 -1 -1 0 0 0 0 0 0 0 0 0 -77 0 0 -10 0 -47 -35 -39 0 0 0 0 0 0 0 0 0 0 0 0 0 0 0 0 0 0 0 0 0 0 0 0 0
0 -1 -1 0 -1 0 0 0 0 0 -30 -45 -12 0 0 0 0 -19 0 0 0 0 0 0 0 0 0 0 0 0 0 0 0 0 0 0 0 0 0 0 0 0 0 0 0
0 0 -2 -11 0 0 0 0 0 -71 -22 0 -3 0 0 -5 0 0 0 0 0 0 0 0 0 0 0 0 0 0 0 0 0 0 0 0 0 0 0 0 0 0 0 0 0
0 0 -1 -6 -2 -31 0 0 0 -47 -27 -10 -75 0 0 0 0 0 0 0 0 -12 -3 0 0 0 0 -3 0 0 0 0 0 0 0 0 0 0 0 0 0 0 0 0 0
0 0 0 0 -1 -26 0 0 0 0 0 -2 0 0 0 0 0 0 -16 -8 -9 -1 0 -5 -1 0 0 0 0 0 0 0 0 0 0 0 0 0 0 0 0 0 0 0 0
0 -1 -1 -1 -3 0 0 0 0 0 0 -12 -21 0 0 -3 0 0 -16 0 -1 0 0 -1 0 0 0 0 0 0 0 0 0 0 -1 0 0 0 0 0 0 0 0 0 0
0 -6 -10 -10 -28 0 0 -2 0 0 0 0 0 0 -1 -2 0 -11 -11 -7 0 -3 0 0 0 0 0 0 0 0 0 0 0 0 0 -3 0 0 0 0 0 0 0 0 0
0 0 -3 0 0 0 -2 -6 -1 -3 0 0 0 -1 -1 -5 -2 0 -12 -5 -4 -21 0 0 0 0 0 0 0 0 0 0 0 0 0 -1 0 0 0 0 0 0 0 0 0
0 0 -9 0 0 -10 -4 -6 -1 -1 0 0 0 -1 -5 -1 -1 -6 -13 -8 -2 -15 -4 0 0 0 0 -4 0 0 -2 -2 0 0 0 0 0 0 0 0 0 0 0 0 0
0 0 0 0 0 0 -22 -3 -3 0 0 0 0 0 0 -3 0 0 -2 -11 -18 -9 -11 0 0 -8 0 0 -2 0 0 0 0 0 0 -1 -2 0 0 0 0 0 0 0 0
0 0 0 0 0 0 0 -3 0 -1 0 0 0 0 -10 -1 -6 -6 0 0 0 0 0 0 0 -8 -3 0 0 0 0 0 0 0 0 0 0 0 0 0 0 0 0 -17 0
0 0 0 0 0 0 0 0 0 0 0 0 -1 0 0 -1 -1 0 0 0 0 0 0 0 0 0 0 0 -5 -2 0 0 0 0 0 0 0 0 0 0 0 -2 -2 0 0
0 0 0 0 0 0 0 0 -2 0 -3 0 -3 -2 -2 0 0 0 0 -1 0 0 0 0 0 0 0 0 -1 -1 0 0 0 0 0 0 0 0 0 0 0 0 0 0 0
0 0 0 0 0 0 0 0 0 0 0 0 0 0 0 -1 0 0 0 0 -1 0 0 0 0 0 0 0 0 0 -1 0 0 0 0 0 0 0 0 0 0 0 0 0 0
0 0 0 0 0 0 0 0 0 0 0 0 0 0 0 0 0 0 0 0 0 0 0 0 0 0 0 0 0 -4 0 0 0 0 0 0 0 0 0 0 0 0 -3 0 0
0 0 0 0 0 0 0 0 0 0 0 0 0 0 0 0 0 0 0 0 0 0 0 0 0 0 0 0 0 0 0 0 0 0 0 0 0 0 0 0 0 -1 0 0 0
0 0 0 0 0 0 0 0 0 0 0 0 0 0 0 0 0 0 0 0 0 0 0 0 0 0 0 0 0 0 0 0 0 0 0 0 0 0 0 0 0 0 0 0 0
0 0 0 0 0 0 0 0 0 0 0 0 0 0 0 0 0 0 0 0 0 0 0 0 0 0 0 0 0 0 0 0 0 0 0 0 0 0 0 -2 0 0 0 0 0
0 0 0 0 0 0 0 0 0 0 0 0 0 0 0 0 0 0 0 0 0 0 0 0 0 0 0 0 0 0 0 0 0 0 0 0 0 0 -1 -1 0 0 0 0 0
0 0 0 0 0 0 0 0 0 0 0 0 0 0 0 0 0 0 0 0 0 0 0 0 0 0 0 0 0 0 0 0 0 0 0 0 0 0 0 0 0 0 0 0 0
0 0 0 0 0 0 0 0 0 0 0 0 0 0 0 0 0 0 0 0 0 0 0 0 0 0 0 0 0 0 0 0 0 0 0 0 0 0 0 0 0 0 0 0 0
Wind_Speed
11 10 11 11 11 13 12 13 15 15 16 15 13 16 15 9 5 1 7 7 6 8 3 3 5 4 4 4 3 3 2 3 3 6 3 2 6 6 4 5 3 5 3 5 8
10 9 11 10 11 12 13 14 15 16 16 15 13 16 16 11 3 6 6 8 7 9 3 4 4 3 3 2 2 4 3 7 5 1 2 4 2 4 5 9 5 6 7 8 10
13 10 9 8 9 10 12 13 15 16 16 15 15 23 18 12 3 7 12 11 11 12 4 3 5 4 3 2 2 3 4 4 4 4 3 5 10 4 4 16 7 7 5 8 6
15 9 7 9 10 10 11 13 16 15 16 14 15 22 18 2 3 3 9 19 10 10 5 4 4 4 3 3 1 2 4 3 3 4 6 10 7 10 13 18 14 16 13 12 9
13 8 5 3 9 10 12 12 14 15 16 15 17 12 11 4 4 8 14 16 11 7 5 4 5 4 4 1 2 2 3 6 7 8 8 9 12 13 20 12 14 20 18 17 10
5 5 4 6 9 11 12 14 15 15 14 15 4 16 7 4 7 12 9 7 8 5 3 3 4 3 3 1 1 3 4 8 7 11 8 14 18 5 3 12 15 16 19 15 10
12 6 6 8 10 11 12 15 17 18 17 15 14 3 7 6 5 5 7 3 3 4 4 2 2 4 3 1 1 4 7 7 10 8 7 5 10 13 20 15 17 21 21 21 19
15 9 10 11 11 13 15 16 19 18 18 11 20 4 5 2 2 8 2 4 6 6 5 4 4 4 4 2 4 3 1 5 6 2 5 7 12 11 11 9 14 17 16 16 19
10 10 12 13 13 14 16 17 16 13 6 19 6 5 6 6 5 8 4 5 5 3 4 4 3 2 2 3 4 1 3 6 9 4 3 6 11 6 7 7 15 13 14 15 13
15 13 10 11 12 15 14 8 11 12 13 9 4 6 4 7 5 2 2 7 4 5 4 3 2 1 3 3 4 4 4 6 8 5 4 9 22 23 24 16 18 18 15 14 14
15 14 13 13 13 13 8 5 6 5 6 2 7 5 9 10 9 8 4 4 3 3 2 2 1 7 9 7 4 3 6 12 16 16 14 17 22 24 22 10 15 16 16 13 14
13 11 13 14 12 10 6 5 3 2 7 8 7 7 7 10 9 5 6 5 3 3 2 2 7 11 7 5 8 13 14 16 16 15 6 13 20 24 20 21 14 16 12 12 11
12 13 14 13 7 6 6 4 3 4 4 6 5 9 7 2 4 8 8 3 3 6 7 5 4 4 8 8 11 14 15 15 14 14 12 13 14 7 4 5 4 7 7 7 10
12 12 13 10 7 3 4 3 2 4 4 4 4 3 1 3 4 3 5 3 5 7 5 6 7 8 8 10 11 15 11 17 16 11 5 6 12 5 7 9 5 8 6 7 9
8 11 11 10 2 4 5 4 3 1 5 1 3 2 2 2 9 3 3 3 4 3 3 7 3 6 12 6 12 9 4 8 11 12 13 8 8 5 8 10 14 15 9 9 9
7 8 6 4 2 1 3 3 0 5 6 3 3 6 5 2 2 6 4 1 2 3 3 9 3 4 4 4 6 6 7 15 14 7 6 2 7 1 8 12 12 10 10 9 9
12 10 6 2 2 6 3 1 4 6 1 1 7 4 3 3 4 5 6 5 3 3 4 3 5 3 3 6 5 6 4 5 4 2 3 4 3 2 13 18 11 12 6 6 6
10 6 5 1 2 3 3 3 10 6 5 1 4 6 1 5 2 5 4 4 10 4 3 2 6 6 6 6 2 4 2 2 5 3 3 3 5 4 12 15 10 11 10 10 11
5 4 4 4 1 3 3 7 4 3 4 4 1 2 1 2 3 4 4 3 4 8 4 2 5 1 9 6 3 2 3 2 4 3 3 2 3 3 16 17 15 13 13 12 14
3 3 4 5 2 3 5 8 4 4 3 1 1 3 3 2 1 1 2 5 3 6 3 1 5 5 2 4 7 5 3 3 2 3 3 2 1 5 11 14 14 14 13 13 13
5 5 4 7 2 7 5 4 2 3 3 4 1 2 2 3 1 2 2 2 3 5 6 2 2 6 2 4 3 2 2 3 3 2 2 2 2 3 7 9 10 11 10 9 9
4 4 5 6 7 3 3 5 5 4 2 1 2 2 3 4 2 2 2 3 1 7 6 6 2 4 6 2 2 2 4 3 2 1 1 2 3 5 9 7 5 6 6 8 10
3 2 4 5 5 4 5 4 2 9 6 6 5 4 3 3 2 3 3 2 1 3 2 3 2 5 8 6 4 4 6 5 2 1 2 2 2 6 4 3 6 6 6 7 9
4 4 6 6 1 2 5 5 6 5 4 4 4 2 4 6 6 3 6 3 5 3 2 2 2 1 4 5 3 7 13 7 1 3 1 4 4 1 1 7 4 5 6 6 7
4 1 1 3 5 4 3 3 5 8 5 7 6 6 1 4 4 5 5 6 4 7 3 2 1 1 3 3 3 2 6 12 8 2 4 2 5 4 5 2 2 3 3 6 7
4 5 3 1 3 5 6 5 6 6 6 7 4 7 7 4 1 2 1 3 1 6 3 3 1 1 4 5 6 4 9 8 6 6 5 4 3 4 2 1 2 3 5 7 8
2 1 5 2 2 3 3 4 5 7 1 2 4 4 5 2 5 7 6 4 4 2 2 2 3 3 4 4 6 4 4 4 2 2 3 2 5 3 4 4 2 2 3 5 4
Wind_Direction
304 312 325 334 348 346 343 338 330 323 327 316 335 230 197 177 183 199 245 213 182 207 119 112 64 52 44 76 68 111 75 226 224 160 229 31 25 325 315 259 333 283 289 290 337
281 300 314 331 332 337 336 335 329 326 322 318 326 323 197 154 109 236 231 206 210 190 113 125 113 76 48 62 38 110 153 209 219 197 246 310 331 323 323 299 274 287 286 323 339
262 266 293 314 318 325 322 326 326 321 322 317 328 324 164 130 82 245 222 195 201 181 118 114 110 100 77 81 187 158 204 221 256 261 285 295 299 238 259 273 250 250 266 292 298
251 265 284 321 323 329 327 326 320 317 320 323 312 312 136 115 171 287 209 185 148 104 100 124 89 88 108 186 251 278 246 234 282 298 292 285 284 269 259 265 281 274 264 267 261
241 236 282 327 319 325 316 318 316 308 313 308 304 152 108 82 306 323 135 168 102 109 148 123 103 117 146 187 353 214 279 293 299 291 276 280 268 265 260 282 262 270 270 269 259
235 320 11 344 340 329 323 313 314 308 302 300 314 135 109 116 312 311 96 79 106 98 101 101 161 145 127 104 146 342 309 287 278 275 271 271 269 249 325 262 268 266 272 265 246
40 344 20 359 342 337 322 318 311 306 297 278 167 71 81 131 309 21 53 80 92 100 101 36 98 93 104 56 11 329 322 305 258 260 244 244 269 237 261 269 263 262 262 267 262
33 7 4 4 346 335 323 320 308 301 290 219 155 103 105 128 56 86 14 47 67 67 93 58 93 107 124 149 0 328 0 341 286 312 253 136 264 251 254 259 257 258 262 261 267
26 358 9 349 340 329 325 322 321 302 138 134 118 92 129 168 99 163 155 118 95 76 80 72 47 111 70 117 357 41 258 244 297 227 252 187 287 236 241 242 266 251 249 255 255
9 4 356 342 344 331 331 342 347 33 85 79 54 108 160 153 134 183 96 125 104 94 50 62 61 70 162 166 223 214 247 266 251 299 189 257 265 276 277 265 249 255 248 249 254
2 355 347 352 354 355 6 6 26 24 23 54 135 61 131 122 129 188 120 104 85 60 185 270 188 223 218 211 222 323 278 276 275 275 284 264 268 276 277 258 244 245 248 244 248
356 354 351 1 8 4 50 69 106 246 59 56 65 80 120 152 142 142 138 127 131 206 131 84 251 246 199 212 239 255 268 268 277 257 243 277 276 279 278 266 241 237 244 240 245
353 2 5 360 94 40 80 86 170 161 69 45 43 100 131 139 96 161 148 134 185 204 203 185 233 50 194 229 234 245 250 266 263 296 270 280 279 262 288 305 284 247 241 249 243
355 8 3 4 51 328 49 343 196 174 94 13 69 59 193 95 85 113 170 189 217 223 197 240 238 232 244 232 205 266 236 247 267 284 287 39 293 272 342 314 352 354 328 296 279
19 24 18 51 131 39 11 342 28 346 73 65 36 67 252 197 137 182 197 290 259 217 191 256 266 229 239 244 192 243 268 270 267 269 299 252 252 279 349 339 332 317 306 291 271
54 45 36 36 50 43 356 99 118 46 72 124 146 148 172 29 105 137 180 203 286 317 255 253 274 285 231 293 239 304 304 277 264 248 250 240 209 339 354 315 297 295 287 289 275
40 35 43 54 343 324 329 161 66 60 307 36 97 157 121 139 152 172 165 186 230 224 236 263 232 258 213 275 214 204 262 306 335 216 254 331 236 330 331 320 329 335 7 27 18
39 20 340 43 322 16 40 61 59 40 68 128 108 111 116 183 173 173 155 227 236 221 287 294 322 195 176 228 298 218 222 275 296 305 312 347 336 344 340 336 352 12 33 33 28
60 344 304 264 286 118 101 53 77 21 27 74 94 184 132 184 215 195 203 234 228 187 212 306 274 226 205 212 197 66 242 230 269 222 238 340 333 250 353 357 16 19 36 21 17
94 9 282 295 305 94 54 74 70 42 17 157 168 187 178 114 122 256 222 187 229 166 173 11 295 207 280 181 246 237 356 291 254 302 320 79 75 333 342 343 353 26 26 22 10
64 31 263 312 68 45 48 46 343 281 225 203 306 138 111 155 152 227 236 221 241 145 169 259 274 299 291 200 215 167 263 270 278 248 319 350 23 347 319 321 11 30 24 26 31
89 33 312 1 48 33 34 337 325 288 316 319 226 76 166 147 180 261 286 232 100 142 182 228 267 279 250 349 27 253 269 181 242 209 346 92 24 330 302 314 347 25 36 39 35
68 226 321 50 65 348 318 335 307 357 360 17 8 24 14 76 69 45 334 281 235 178 228 175 323 319 346 3 5 9 313 240 221 44 39 92 71 322 344 24 30 67 42 38 40
77 37 332 37 62 43 353 354 348 339 314 345 328 360 51 39 27 27 347 316 347 1 140 121 95 167 173 245 298 328 345 5 111 80 119 55 109 238 310 57 63 52 57 53 47
52 167 165 354 349 6 20 347 354 5 344 15 19 19 296 50 27 21 333 334 347 6 79 97 90 56 260 295 297 285 341 21 53 317 49 89 123 195 234 123 29 64 62 66 65
122 132 59 27 327 9 353 0 12 331 11 343 41 338 21 82 120 239 14 35 326 325 43 346 227 57 306 345 357 356 6 17 32 43 62 102 53 229 214 172 76 104 86 66 49
326 19 113 307 37 53 321 322 337 344 22 35 306 329 8 348 237 239 218 255 254 306 323 70 105 49 275 349 337 346 330 353 334 36 155 209 233 171 256 248 269 184 113 112 101